Regional Weather Roundup
Issued by NWS

Home | Current Version | Previous Version | Graphics & Text | Print | Product List | Glossary On
Versions: 1 2 3 4 5 6 7 8 9 10 11 12 13 14 15 16 17 18 19 20 21 22 23 24 25 26 27 28 29 30 31 32 33 34 35 36 37 38 39 40 41 42 43 44 45 46 47 48 49 50
000
ASUS43 KOAX 292202
RWRNE

WEATHER ROUNDUP FOR NEBRASKA
NATIONAL WEATHER SERVICE OMAHA NE
500 PM CDT SUN MAY 29 2016

NOTES: SATELLITE DATA IS BEING USED TO AUGMENT CLOUD COVER ABOVE
       12000 FEET.
       "FAIR" INDICATES FEW OR NO CLOUDS BELOW 12,000 FEET WITH NO
       SIGNIFICANT WEATHER AND/OR OBSTRUCTIONS TO VISIBILITY.

  * THESE STATIONS DO NOT REPORT WEATHER SUCH AS RAIN...SNOW OR FOG.

NEZ001>004-019>022-054>056-292300-
NEBRASKA PANHANDLE

CITY           SKY/WX    TMP DP  RH WIND       PRES   REMARKS
SCOTTSBLUFF    CLOUDY    76  44  32 S7        30.03F
ALLIANCE       CLOUDY    79  45  29 S9        30.02F
CHADRON        SUNNY     80  46  30 MISG      29.99F
SIDNEY         SUNNY     78  41  26 VRB3      30.05F
$$

NEZ057>060-069>072-079>082-292300-
SOUTHWEST NEBRASKA

CITY           SKY/WX    TMP DP  RH WIND       PRES   REMARKS
NORTH PLATTE   SUNNY     82  58  43 S9        29.99F
IMPERIAL       SUNNY     82  51  34 S10       29.98F
LEXINGTON      CLOUDY    82  55  39 CALM      30.00F
MCCOOK         CLOUDY    75  52  44 S21G29    29.98F
$$

NEZ005>010-023>029-035>040-094-292300-
NORTH CENTRAL NEBRASKA

CITY           SKY/WX    TMP DP  RH WIND       PRES   REMARKS
VALENTINE      SUNNY     78  52  40 SE7G18    30.01F
AINSWORTH      SUNNY     78  53  41 E8        30.02F
BROKEN BOW     SUNNY     80  57  45 SE10      30.01F
ORD            SUNNY     82  54  37 VRB3      29.99F
$$

NEZ041-046>049-061>064-073>077-083>087-292300-
SOUTH CENTRAL NEBRASKA

CITY           SKY/WX    TMP DP  RH WIND       PRES   REMARKS
GRAND ISLAND   SUNNY     82  57  42 SE8       30.01F
HASTINGS       MOSUNNY   82  55  39 SW7       29.99F
KEARNEY *      CLOUDY    82  54  36 S8        30.01F
YORK           SUNNY     82  57  42 E5        30.02F
$$

NEZ011>018-030>034-042>045-292300-
NORTHEAST NEBRASKA

CITY           SKY/WX    TMP DP  RH WIND       PRES   REMARKS
NORFOLK        SUNNY     80  56  43 SE6       30.01F
ALBION         SUNNY     81  53  38 CALM      30.01F
BLAIR          SUNNY     82  56  40 CALM      30.01F
FREMONT        SUNNY     83  57  42 W6        30.01F
TEKAMAH          N/A    N/A N/A N/A MISG      29.99F
$$

NEZ050>053-065>068-078-088>093-292300-
SOUTHEAST NEBRASKA

CITY           SKY/WX    TMP DP  RH WIND       PRES   REMARKS
LINCOLN        SUNNY     87  55  33 W9        30.01F
OMAHA EPPLEY   MOSUNNY   86  57  37 NW5       30.00F
FALLS CITY     SUNNY     86  58  38 W7        30.02F
PLATTSMOUTH    SUNNY     86  57  36 CALM      30.01F
$$

NEZ044-045-051>053-067-292300-
OMAHA AREA

CITY           SKY/WX    TMP DP  RH WIND       PRES   REMARKS
OMAHA EPPLEY   MOSUNNY   86  57  37 NW5       30.00F
BLAIR          SUNNY     82  56  40 CALM      30.01F
FREMONT        SUNNY     83  57  42 W6        30.01F
OFFUTT AFB     SUNNY     85  58  39 VRB1      29.99F
PLATTSMOUTH    SUNNY     86  57  36 CALM      30.01F
$$




USA.gov is the U.S. government's official web portal to all federal, state and local government web resources and services.